Wind_Speed
77 76 75 74 73 72 70 68 66 61 53 51 53 54 53 47 40 33 28 29 40 57 70 80 89 97 102 107 116 124 130 130 128 123 117 111 107 100
75 74 72 72 70 69 67 65 63 61 55 50 51 51 50 47 41 35 28 27 36 52 68 79 88 97 102 107 115 124 130 130 128 124 119 114 109 103
73 72 70 70 68 67 65 63 61 59 55 50 49 48 47 45 41 36 30 26 32 46 64 77 87 95 102 107 113 123 129 130 129 125 120 115 111 106
71 70 68 68 66 65 63 61 59 57 54 50 48 46 45 44 41 36 31 27 28 41 58 73 84 93 102 108 113 121 128 130 130 126 122 117 113 109
69 68 67 66 64 63 61 60 57 54 53 51 47 45 43 42 39 35 31 27 26 36 52 69 81 90 100 106 112 119 127 129 129 127 123 119 114 110
67 66 65 64 63 61 59 58 55 52 51 50 48 44 42 40 38 33 29 27 25 31 45 62 76 87 97 105 110 117 124 129 130 128 125 120 115 111
65 64 63 63 61 60 59 58 55 51 50 49 47 45 42 40 37 33 28 25 24 28 39 55 69 81 92 101 106 113 120 126 129 128 126 121 117 112
63 62 61 61 60 58 57 57 54 51 50 49 48 45 42 40 37 32 27 23 22 26 34 48 62 73 86 97 103 108 116 124 128 128 127 123 118 113
62 61 59 59 58 56 55 54 51 49 48 48 47 45 42 39 35 30 26 22 20 24 30 41 54 65 78 90 98 104 112 120 126 128 127 124 119 115
60 59 58 56 56 55 53 52 50 47 45 45 44 42 40 37 33 28 23 19 18 21 27 36 47 57 71 83 93 99 107 116 123 127 127 125 120 116
57 57 56 55 54 53 52 51 48 44 43 42 42 41 38 35 31 25 20 17 16 19 25 34 42 51 62 74 85 93 100 110 119 125 127 126 122 117
54 54 54 53 53 52 51 51 47 43 40 40 39 38 36 32 27 22 17 14 14 18 25 34 40 47 54 66 77 86 94 104 115 122 126 126 123 119
52 52 51 51 51 50 49 49 47 42 40 39 38 36 33 29 24 19 14 11 12 18 25 33 39 45 51 59 70 79 87 97 109 119 124 126 124 120
50 50 49 49 49 48 47 47 45 40 38 37 37 35 31 27 22 16 11 8 11 18 26 33 38 44 49 53 62 71 80 90 103 114 121 124 124 121
49 48 48 47 47 46 45 45 42 39 36 35 35 33 29 24 19 14 9 6 11 19 26 33 38 43 48 52 56 65 73 83 96 108 118 123 124 122
47 47 46 46 45 45 44 44 41 37 35 34 33 31 27 22 17 11 6 5 11 19 26 32 37 42 47 50 54 60 68 76 89 102 113 120 123 123
45 45 44 44 43 43 43 42 39 35 33 32 31 29 25 20 15 10 4 4 12 19 25 31 36 41 45 48 51 56 62 71 82 95 108 117 122 122
42 42 42 42 41 40 40 39 37 33 30 29 29 27 23 18 13 8 3 4 12 19 24 29 34 38 42 45 49 52 58 65 76 88 102 113 119 121
40 40 40 39 39 38 38 37 35 31 28 27 26 25 22 17 12 8 3 3 11 17 22 27 32 36 39 42 46 50 55 62 70 82 95 107 115 118
38 38 38 37 37 36 35 35 33 30 27 25 24 23 20 16 11 7 3 3 9 15 20 24 29 33 37 40 44 48 54 59 66 76 88 100 109 115
36 36 36 35 35 34 34 33 32 29 26 23 22 21 18 15 10 6 3 4 8 13 17 21 26 30 34 37 41 46 51 57 63 71 82 94 104 111
34 34 34 33 33 33 32 31 30 28 25 22 20 18 17 13 9 5 6 6 7 11 14 18 23 26 30 34 38 44 50 57 63 70 79 89 98 106
32 32 32 32 32 31 30 30 29 27 24 20 18 16 14 11 8 6 6 6 7 9 12 15 19 22 26 31 36 42 49 56 63 69 76 84 92 99
Wind_Direction
326 327 328 328 328 328 328 328 328 330 333 328 325 324 325 325 321 311 289 256 229 215 210 208 207 206 205 205 205 204 201 200 200 200 201 201 201 200
326 328 328 328 329 329 329 328 328 328 332 331 327 324 324 324 321 314 298 267 236 219 211 208 207 206 205 205 204 203 201 199 199 200 200 201 200 200
327 328 329 329 329 330 330 329 327 327 330 332 328 325 322 321 320 316 303 278 244 224 214 210 208 207 205 204 204 203 201 198 198 199 199 200 200 199
327 329 329 329 330 330 330 329 328 327 328 331 330 326 322 319 318 315 306 287 254 228 217 211 209 208 206 205 203 202 200 198 198 198 199 200 200 199
328 329 330 330 331 331 331 330 329 327 328 330 331 327 323 319 317 314 305 290 263 233 219 213 210 209 207 205 204 202 200 198 198 198 199 199 199 199
328 330 330 331 331 332 332 331 330 328 328 330 331 329 325 321 318 314 304 290 268 238 221 215 211 209 208 206 204 202 200 198 198 198 198 199 199 199
328 330 331 331 332 332 333 333 332 330 330 330 331 331 327 323 319 315 306 289 269 242 221 214 212 210 208 206 204 203 201 199 198 198 198 198 199 199
329 331 331 332 333 334 334 334 333 331 331 331 332 331 329 324 320 315 306 290 269 243 220 212 211 209 208 206 205 204 202 199 198 198 198 198 199 199
329 331 332 333 333 334 335 336 334 332 331 331 331 330 328 325 320 314 304 290 266 241 218 208 208 208 207 206 205 204 203 200 198 198 198 198 198 199
330 332 333 334 334 335 336 337 336 334 332 331 330 330 328 326 322 316 303 286 261 237 212 202 203 204 206 205 205 205 204 201 199 198 197 198 198 199
330 332 333 334 335 335 337 339 338 335 333 332 332 332 330 328 324 317 304 284 257 231 207 197 197 199 202 203 205 205 205 203 200 198 198 197 198 198
330 332 333 334 336 337 338 340 340 337 335 335 335 334 333 330 326 319 305 283 251 222 201 194 192 193 196 200 202 204 204 203 201 199 198 198 198 198
330 332 333 335 337 338 339 340 340 339 339 339 339 339 337 334 329 322 308 280 239 211 196 191 188 188 191 195 199 202 203 203 202 200 199 198 198 198
331 333 334 336 338 339 340 341 341 341 342 343 343 342 340 338 334 326 311 273 225 201 191 188 186 185 187 191 196 199 202 203 202 201 199 198 198 198
331 333 335 336 338 340 341 342 343 344 345 346 346 346 344 342 338 331 315 258 210 193 188 186 185 184 184 187 191 196 199 201 202 201 200 199 198 198
331 333 335 337 339 341 342 344 345 346 347 349 349 350 349 347 344 337 318 237 198 189 187 186 184 183 184 185 188 193 197 200 201 202 201 199 199 198
331 333 335 337 340 341 343 345 346 347 348 351 352 353 353 352 350 344 323 217 193 188 187 187 185 184 184 185 186 190 195 198 201 202 201 200 199 199
331 333 335 338 340 342 344 346 347 348 350 352 354 356 357 358 357 354 337 208 192 189 188 188 187 186 186 186 186 189 193 196 199 201 202 201 199 199
330 333 335 338 340 342 345 347 348 350 351 353 355 358 360 3 6 8 6 195 191 190 189 188 188 187 186 187 188 188 190 194 197 199 201 201 200 199
330 333 335 338 341 343 345 348 349 350 352 353 355 358 1 5 8 13 32 168 184 185 186 188 188 188 188 190 189 188 189 192 194 197 199 200 200 199
329 332 335 338 341 344 346 349 350 351 352 354 356 360 3 8 17 31 73 138 172 182 185 187 189 190 191 191 191 190 189 190 191 194 197 199 200 200
329 332 335 338 341 344 347 349 351 352 353 355 357 0 5 12 27 55 97 119 151 173 180 184 186 188 190 191 192 191 190 189 189 191 194 197 199 200
328 332 335 338 342 345 348 350 352 353 354 355 358 1 5 14 33 67 108 118 136 159 171 178 183 187 189 191 192 191 190 189 188 189 190 194 197 198
Height
5492 5475 5457 5439 5422 5404 5388 5371 5358 5349 5344 5328 5312 5298 5287 5279 5271 5265 5261 5260 5262 5269 5280 5293 5308 5327 5346 5367 5392 5418 5448 5480 5512 5542 5570 5595 5619 5641
5479 5462 5445 5428 5411 5395 5379 5364 5349 5336 5330 5320 5306 5292 5280 5271 5264 5258 5254 5252 5253 5258 5267 5280 5294 5311 5330 5351 5374 5401 5432 5465 5496 5526 5554 5579 5603 5625
5467 5451 5434 5417 5401 5385 5370 5356 5342 5328 5319 5312 5298 5286 5275 5265 5258 5251 5246 5244 5244 5248 5256 5268 5282 5298 5316 5336 5360 5388 5418 5450 5480 5510 5537 5563 5588 5612
5456 5440 5423 5407 5392 5376 5362 5347 5334 5321 5310 5303 5293 5280 5269 5259 5251 5245 5239 5236 5235 5238 5245 5256 5270 5285 5304 5324 5347 5374 5404 5435 5465 5494 5523 5550 5575 5597
5445 5430 5414 5398 5383 5368 5354 5339 5326 5314 5302 5293 5285 5274 5263 5253 5245 5238 5232 5228 5227 5228 5234 5245 5258 5274 5293 5314 5336 5362 5391 5423 5453 5481 5507 5534 5560 5584
5434 5419 5404 5389 5374 5360 5347 5333 5319 5307 5295 5285 5276 5266 5256 5247 5238 5231 5226 5221 5219 5219 5225 5235 5248 5263 5282 5304 5327 5352 5380 5408 5437 5466 5493 5521 5547 5572
5425 5410 5395 5380 5365 5351 5337 5323 5310 5298 5288 5277 5268 5258 5249 5239 5231 5224 5219 5215 5212 5212 5216 5225 5238 5255 5274 5296 5318 5343 5369 5397 5425 5453 5481 5508 5534 5559
5416 5402 5387 5372 5358 5344 5330 5316 5302 5290 5279 5269 5260 5251 5242 5233 5225 5218 5213 5209 5207 5206 5209 5218 5231 5247 5266 5287 5310 5332 5356 5383 5412 5439 5467 5495 5521 5546
5407 5393 5380 5365 5351 5338 5325 5311 5298 5285 5274 5264 5254 5245 5236 5228 5219 5213 5207 5204 5202 5201 5205 5213 5225 5241 5258 5279 5300 5322 5346 5372 5399 5427 5454 5482 5509 5534
5398 5385 5372 5359 5344 5332 5320 5307 5293 5281 5270 5261 5251 5241 5232 5223 5214 5208 5203 5200 5199 5199 5202 5210 5220 5235 5251 5271 5292 5314 5338 5362 5389 5416 5443 5470 5497 5522
5390 5377 5365 5352 5340 5327 5315 5302 5289 5277 5266 5256 5246 5236 5227 5218 5210 5205 5200 5198 5197 5197 5201 5208 5217 5230 5247 5266 5286 5307 5329 5353 5378 5405 5431 5458 5485 5509
5383 5370 5358 5346 5333 5320 5308 5296 5284 5274 5264 5254 5243 5233 5223 5215 5208 5202 5198 5196 5196 5197 5202 5208 5216 5228 5244 5260 5279 5299 5320 5343 5368 5393 5419 5446 5472 5496
5376 5364 5352 5340 5327 5315 5303 5291 5279 5269 5259 5249 5240 5230 5221 5213 5206 5201 5198 5196 5196 5198 5203 5209 5217 5228 5240 5256 5274 5293 5313 5335 5358 5382 5408 5434 5460 5486
5370 5358 5346 5335 5323 5311 5300 5288 5276 5266 5256 5246 5237 5228 5220 5212 5206 5201 5198 5197 5198 5201 5205 5212 5220 5229 5240 5254 5270 5288 5308 5328 5350 5373 5398 5423 5449 5475
5363 5352 5341 5330 5319 5308 5296 5285 5274 5263 5254 5245 5236 5227 5219 5212 5207 5203 5200 5199 5200 5204 5208 5214 5222 5231 5241 5253 5267 5284 5302 5321 5341 5364 5387 5412 5439 5464
5356 5346 5335 5325 5314 5304 5293 5282 5271 5261 5252 5244 5235 5227 5219 5213 5208 5205 5203 5202 5204 5207 5212 5217 5225 5233 5243 5253 5266 5281 5297 5315 5335 5356 5379 5403 5428 5454
5351 5341 5331 5321 5311 5300 5289 5279 5269 5260 5251 5243 5235 5228 5221 5215 5211 5208 5206 5206 5208 5211 5215 5221 5228 5235 5244 5254 5266 5280 5295 5311 5330 5350 5371 5395 5420 5447
5345 5336 5327 5317 5308 5298 5288 5278 5268 5259 5251 5244 5236 5229 5223 5217 5214 5211 5210 5210 5212 5215 5219 5224 5231 5239 5247 5257 5267 5279 5293 5308 5325 5343 5364 5389 5414 5440
5340 5331 5323 5314 5305 5295 5286 5277 5267 5259 5251 5244 5237 5231 5225 5220 5217 5215 5213 5214 5215 5218 5222 5227 5234 5241 5249 5257 5266 5277 5290 5303 5319 5338 5359 5384 5410 5435
5335 5327 5319 5310 5302 5293 5284 5275 5266 5258 5251 5244 5238 5233 5228 5223 5220 5218 5217 5217 5219 5222 5225 5230 5236 5243 5249 5257 5265 5275 5286 5300 5315 5334 5355 5378 5402 5424
5331 5323 5315 5307 5299 5291 5282 5274 5266 5258 5251 5245 5240 5235 5230 5226 5223 5221 5220 5221 5222 5225 5228 5232 5237 5243 5249 5257 5265 5274 5285 5297 5312 5329 5349 5369 5390 5412
5326 5319 5312 5304 5297 5289 5281 5273 5265 5258 5251 5245 5240 5236 5232 5229 5226 5224 5224 5224 5225 5227 5230 5234 5239 5244 5250 5257 5264 5272 5282 5294 5307 5323 5341 5362 5383 5409
5322 5315 5308 5302 5294 5287 5279 5271 5264 5257 5251 5246 5241 5238 5234 5231 5229 5228 5227 5228 5229 5230 5233 5236 5240 5244 5250 5255 5262 5270 5279 5290 5304 5319 5338 5359 5382 5406